• In Moldova, Republic
  • List of Countries
  • For 7 days
  • Water Temperature
  • Satellite Maps
  • Weather Map
  • Weather Widgets
  • user-avatar
    Login

    Hourly Weather Satif

    Today, 23 January, Monday

    Time Temperature Precipitation Wind Pressure Humidity
    00:00 0°C° 0.2 mm 1 mps 664 mmHg 94%
    01:00 -1°C° 0 mm 1 mps 664 mmHg 95%
    02:00 -1°C° 0 mm 1 mps 664 mmHg 95%
    03:00 -1°C° 0 mm 1 mps 663 mmHg 95%
    04:00 -2°C° 0 mm 1 mps 664 mmHg 95%
    05:00 -2°C° 0 mm 1 mps 664 mmHg 95%
    06:00 -2°C° 0 mm 1 mps 664 mmHg 95%
    07:00 0°C° 0 mm 1 mps 664 mmHg 92%
    08:00 +2°C° 0 mm 1 mps 665 mmHg 88%
    09:00 +4°C° 0 mm 1 mps 666 mmHg 85%
    10:00 +5°C° 0 mm 1 mps 666 mmHg 81%
    11:00 +5°C° 0 mm 2 mps 666 mmHg 78%
    12:00 +6°C° 0 mm 2 mps 667 mmHg 74%
    13:00 +6°C° 0.2 mm 2 mps 666 mmHg 76%
    14:00 +6°C° 0.2 mm 2 mps 666 mmHg 77%
    15:00 +6°C° 0.2 mm 2 mps 666 mmHg 79%
    16:00 +4°C° 0.2 mm 2 mps 666 mmHg 84%
    17:00 +3°C° 0.2 mm 2 mps 666 mmHg 89%
    18:00 +2°C° 0.2 mm 1 mps 666 mmHg 94%
    19:00 +2°C° 0.1 mm 1 mps 666 mmHg 95%
    20:00 -1°C° 0.1 mm 2 mps 666 mmHg 95%
    21:00 -1°C° 0.1 mm 2 mps 666 mmHg 95%
    22:00 -1°C° 0 mm 2 mps 666 mmHg 95%
    23:00 -1°C° 0 mm 2 mps 666 mmHg 95%

    Tomorrow, 24 January, Tuesday

    Time Temperature Precipitation Wind Pressure Humidity
    00:00 -2°C° 0 mm 2 mps 666 mmHg 95%
    01:00 -2°C° 0 mm 2 mps 666 mmHg 95%
    02:00 -1°C° 0 mm 2 mps 666 mmHg 95%
    03:00 -1°C° 0 mm 2 mps 666 mmHg 95%
    04:00 +1°C° 0.1 mm 1 mps 666 mmHg 95%
    05:00 +1°C° 0.1 mm 1 mps 666 mmHg 95%
    06:00 +1°C° 0.1 mm 1 mps 666 mmHg 95%
    07:00 +2°C° 0.5 mm 1 mps 667 mmHg 93%
    08:00 +3°C° 0.5 mm 1 mps 668 mmHg 90%
    09:00 +4°C° 0.5 mm 1 mps 668 mmHg 88%
    10:00 +4°C° 0.5 mm 2 mps 668 mmHg 85%
    11:00 +4°C° 0.5 mm 2 mps 669 mmHg 83%
    12:00 +5°C° 0.5 mm 2 mps 669 mmHg 80%
    13:00 +5°C° 0.4 mm 2 mps 669 mmHg 80%
    14:00 +5°C° 0.4 mm 2 mps 669 mmHg 81%
    15:00 +5°C° 0.4 mm 2 mps 669 mmHg 82%
    16:00 +4°C° 1.8 mm 2 mps 669 mmHg 86%
    17:00 +2°C° 1.8 mm 3 mps 669 mmHg 90%
    18:00 +1°C° 1.8 mm 3 mps 670 mmHg 94%
    19:00 +1°C° 0.9 mm 3 mps 670 mmHg 94%
    20:00 +1°C° 0.9 mm 3 mps 671 mmHg 95%
    21:00 +1°C° 0.9 mm 3 mps 671 mmHg 95%
    22:00 +2°C° 0.1 mm 2 mps 671 mmHg 95%
    23:00 +2°C° 0.1 mm 2 mps 671 mmHg 95%

    Day after tomorrow, 25 January, Wednesday

    Time Temperature Precipitation Wind Pressure Humidity
    00:00 +1°C° 0.1 mm 2 mps 671 mmHg 96%
    01:00 +1°C° 0 mm 2 mps 671 mmHg 96%
    02:00 +1°C° 0 mm 2 mps 671 mmHg 96%
    03:00 +1°C° 0 mm 2 mps 671 mmHg 96%
    04:00 +1°C° 0 mm 2 mps 671 mmHg 96%
    05:00 +1°C° 0 mm 2 mps 671 mmHg 96%
    06:00 -1°C° 0 mm 2 mps 672 mmHg 96%
    07:00 +1°C° 0 mm 2 mps 672 mmHg 93%
    08:00 +2°C° 0 mm 2 mps 673 mmHg 89%
    09:00 +3°C° 0 mm 2 mps 674 mmHg 86%
    10:00 +4°C° 0 mm 2 mps 674 mmHg 80%
    11:00 +5°C° 0 mm 2 mps 674 mmHg 74%
    12:00 +6°C° 0 mm 2 mps 674 mmHg 68%
    13:00 +7°C° 0 mm 1 mps 674 mmHg 67%
    14:00 +7°C° 0 mm 1 mps 673 mmHg 65%
    15:00 +8°C° 0 mm 1 mps 673 mmHg 63%
    16:00 +5°C° 0 mm 1 mps 673 mmHg 72%
    17:00 +2°C° 0 mm 0 mps 672 mmHg 81%
    18:00 0°C° 0 mm 0 mps 672 mmHg 89%
    19:00 +1°C° 0 mm 1 mps 672 mmHg 89%
    20:00 +1°C° 0 mm 1 mps 672 mmHg 88%
    21:00 +1°C° 0 mm 1 mps 672 mmHg 88%
    22:00 +1°C° 0 mm 1 mps 672 mmHg 88%
    23:00 +1°C° 0 mm 1 mps 672 mmHg 88%

    26 January, Thursday

    Time Temperature Precipitation Wind Pressure Humidity
    00:00 -1°C° 0 mm 2 mps 672 mmHg 89%
    01:00 -1°C° 0 mm 2 mps 672 mmHg 88%
    02:00 -1°C° 0 mm 2 mps 672 mmHg 88%
    03:00 -1°C° 0 mm 2 mps 671 mmHg 87%
    04:00 -1°C° 0 mm 2 mps 671 mmHg 87%
    05:00 -1°C° 0 mm 2 mps 671 mmHg 87%
    06:00 -1°C° 0 mm 2 mps 671 mmHg 87%
    07:00 +1°C° 0 mm 2 mps 672 mmHg 82%
    08:00 +3°C° 0 mm 2 mps 673 mmHg 77%
    09:00 +4°C° 0 mm 2 mps 673 mmHg 72%
    10:00 +6°C° 0 mm 2 mps 674 mmHg 67%
    11:00 +7°C° 0 mm 2 mps 674 mmHg 61%
    12:00 +8°C° 0 mm 3 mps 674 mmHg 56%
    13:00 +8°C° 0 mm 2 mps 673 mmHg 56%
    14:00 +8°C° 0 mm 2 mps 673 mmHg 57%
    15:00 +8°C° 0 mm 2 mps 673 mmHg 57%
    16:00 +6°C° 0 mm 2 mps 673 mmHg 67%
    17:00 +5°C° 0 mm 1 mps 672 mmHg 76%
    18:00 +2°C° 0 mm 1 mps 672 mmHg 85%
    19:00 +2°C° 0 mm 1 mps 672 mmHg 85%
    20:00 +2°C° 0 mm 1 mps 672 mmHg 86%
    21:00 +1°C° 0 mm 1 mps 672 mmHg 86%
    22:00 +1°C° 0 mm 1 mps 672 mmHg 85%
    23:00 +1°C° 0 mm 1 mps 672 mmHg 84%

    27 January, Friday

    Time Temperature Precipitation Wind Pressure Humidity
    00:00 +1°C° 0 mm 1 mps 671 mmHg 83%
    01:00 +1°C° 0 mm 1 mps 671 mmHg 82%
    02:00 +1°C° 0 mm 1 mps 671 mmHg 82%
    03:00 +1°C° 0 mm 1 mps 670 mmHg 81%
    04:00 +1°C° 0 mm 1 mps 670 mmHg 81%
    05:00 0°C° 0 mm 1 mps 670 mmHg 80%
    06:00 0°C° 0 mm 1 mps 670 mmHg 80%
    07:00 +2°C° 0 mm 1 mps 670 mmHg 73%
    08:00 +4°C° 0 mm 1 mps 671 mmHg 66%
    09:00 +6°C° 0 mm 1 mps 672 mmHg 59%
    10:00 +7°C° 0 mm 2 mps 672 mmHg 55%
    11:00 +8°C° 0 mm 2 mps 672 mmHg 50%
    12:00 +10°C° 0 mm 2 mps 671 mmHg 45%
    13:00 +9°C° 0 mm 2 mps 671 mmHg 46%
    14:00 +9°C° 0 mm 2 mps 671 mmHg 48%
    15:00 +9°C° 0 mm 2 mps 670 mmHg 49%
    16:00 +8°C° 0 mm 1 mps 670 mmHg 56%
    17:00 +6°C° 0 mm 1 mps 669 mmHg 63%
    18:00 +4°C° 0 mm 1 mps 669 mmHg 71%
    19:00 +3°C° 0 mm 1 mps 669 mmHg 69%
    20:00 +3°C° 0 mm 1 mps 669 mmHg 67%
    21:00 +3°C° 0 mm 1 mps 669 mmHg 65%
    22:00 +3°C° 0 mm 1 mps 669 mmHg 63%
    23:00 +3°C° 0 mm 1 mps 669 mmHg 62%

    28 January, Saturday

    Time Temperature Precipitation Wind Pressure Humidity
    00:00 +3°C° 0 mm 1 mps 669 mmHg 61%
    01:00 +3°C° 0 mm 1 mps 669 mmHg 61%
    02:00 +3°C° 0 mm 1 mps 669 mmHg 61%
    03:00 +3°C° 0 mm 1 mps 669 mmHg 61%
    04:00 +3°C° 0.1 mm 1 mps 669 mmHg 62%
    05:00 +3°C° 0.1 mm 1 mps 669 mmHg 64%
    06:00 +3°C° 0.1 mm 1 mps 670 mmHg 65%
    07:00 +4°C° 0.1 mm 1 mps 670 mmHg 67%
    08:00 +5°C° 0.1 mm 1 mps 671 mmHg 68%
    09:00 +5°C° 0.1 mm 1 mps 671 mmHg 69%
    10:00 +6°C° 0.1 mm 1 mps 672 mmHg 68%
    11:00 +6°C° 0.1 mm 2 mps 672 mmHg 67%
    12:00 +7°C° 0.1 mm 2 mps 672 mmHg 66%
    13:00 +7°C° 0.3 mm 2 mps 672 mmHg 69%
    14:00 +7°C° 0.3 mm 2 mps 672 mmHg 72%
    15:00 +6°C° 0.3 mm 2 mps 672 mmHg 75%
    16:00 +5°C° 0.2 mm 2 mps 672 mmHg 82%
    17:00 +4°C° 0.2 mm 2 mps 673 mmHg 88%
    18:00 +4°C° 0.2 mm 1 mps 673 mmHg 94%
    19:00 +4°C° 0.1 mm 1 mps 673 mmHg 95%
    20:00 +4°C° 0.1 mm 1 mps 673 mmHg 96%
    21:00 +3°C° 0.1 mm 1 mps 674 mmHg 97%
    22:00 +3°C° 0.1 mm 1 mps 674 mmHg 97%
    23:00 +3°C° 0.1 mm 1 mps 674 mmHg 96%
    Show more